Regional Weather Roundup
Issued by NWS New Orleans/Baton Rouge, LA

Home | Current Version | Previous Version | Graphics & Text | Print | Product List | Glossary On
Versions: 1 2 3 4 5 6 7 8 9 10 11 12 13 14 15 16 17 18 19 20 21 22 23 24 25 26 27 28 29 30 31 32 33 34 35 36 37 38 39 40 41 42 43 44 45 46 47 48 49 50
640
ASUS44 KLIX 190001
RWRLIX
NEW ORLEANS REGIONAL WEATHER ROUNDUP
NATIONAL WEATHER SERVICE NEW ORLEANS LA
700 PM CDT FRI APR 18 2014

NOTE: "FAIR" INDICATES FEW OR NO CLOUDS BELOW 12,000 FEET WITH NO
      SIGNIFICANT WEATHER AND/OR OBSTRUCTIONS TO VISIBILITY.
      SKY/WX - SKY CONDITION AND SIGNIFICANT WEATHER.
      TMP - AIR TEMPERATURE.     DP    - DEWPOINT TEMPERATURE.
      RH  - RELATIVE HUMIDITY.   PRES  - PRESSURE.
      HI  - HEAT INDEX.          WCI   - WIND CHILL INDEX.

*  THESE STATIONS ARE NOT NWS OR FAA STATIONS AND ARE NOT UNDER
   NWS QUALITY CONTROL.

LAZ038-040-048-061>063-065>067-069-190100-
SOUTHEAST LOUISIANA

CITY           SKY/WX    TMP DP  RH WIND       PRES   REMARKS
N.O. AUDUBON     N/A     70  56  60 MISG        N/A
6HR MIN TEMP:  69; 6HR MAX TEMP:  76;

N.O. INTL ARPT MOCLDY    68  57  68 NE15G23   30.06S
6HR MIN TEMP:  68; 6HR MAX TEMP:  74;

N.O. LAKEFRONT PTCLDY    66  59  78 NE22      30.07F
6HR MIN TEMP:  66; 6HR MAX TEMP:  71;

N.O. DOWNTOWN*   N/A     68  54  60 NE8G18    30.07S
6HR MIN TEMP:  68; 6HR MAX TEMP:  72;

SLIDELL        CLOUDY    65  55  70 NE7       30.07F
6HR MIN TEMP:  65; 6HR MAX TEMP:  72;

BATON ROUGE    MOCLDY    68  60  75 NW3       30.07R
6HR MIN TEMP:  68; 6HR MAX TEMP:  80; 6HR PCP:  0.01;

BOOTHVILLE     CLOUDY    63  58  83 N13G21    30.06R
6HR MIN TEMP:  63; 6HR MAX TEMP:  67;

BELLE CHASSE   PTCLDY    67  55  65 NE13      30.05F
6HR MIN TEMP:  67; 6HR MAX TEMP:  74;

BOGALUSA*        N/A     68  55  62 NE10G16   30.11S
6HR MIN TEMP:  67; 6HR MAX TEMP:  74;

GALLIANO*      NOT AVBL
NEW ROADS*     NOT AVBL
GONZALES*        N/A     73  56  56 N5        30.06R
6HR MIN TEMP:  73; 6HR MAX TEMP:  79;

HAMMOND*       NOT AVBL
HOUMA*         PTCLDY    72  55  56 NE12      30.05S
PORT FOURCHON* PTCLDY    70  57  64 N10G20    30.07S

$$

MSZ070-080>082-190100-
SOUTHERN MISSISSIPPI

CITY           SKY/WX    TMP DP  RH WIND       PRES   REMARKS
MCCOMB         PTCLDY    70  53  54 NE6       30.08S
6HR MIN TEMP:  69; 6HR MAX TEMP:  74;

GULFPORT       CLOUDY    65  56  72 NW13      30.07R
6HR MIN TEMP:  65; 6HR MAX TEMP:  72;

BILOXI         CLOUDY    64  57  77 N9        30.07R
                                      6HR PCP: TRACE;

PASCAGOULA     MOCLDY    62  56  80 N16G23    30.05R
6HR MIN TEMP:  61; 6HR MAX TEMP:  66;

STENNIS ARPT*  MOCLDY    63  55  77 N9        30.09S

$$

COASTAL OBSERVATIONS
LAKE AND NEARSHORE STATIONS

STATION/POSITION TIME  TEMP    WIND        PRES    WAVE
                       AIR SEA DIR/SP/G            HT/PER
                 (UTC) (F)     (DEG/KT/KT) (MB)    (FT/S)
PASCAGOULA       2300   63      10/ 14/ 18 1016.7
WAVELAND YACHT   2300   63 68  360/ 14/ 16 1017.7
GRAND ISLE       2300   68 68   40/ 14/ 19 1018.1
SOUTHWEST PASS   2300   66 58   20/ 16/ 19 1017.7
NEW CANAL        2300   67 65   60/ 16/ 18 1018.1
SHELL BEACH      2300   64 63   20/ 17/ 21 1018.2

OFFSHORE STATIONS

STATION/POSITION TIME  TEMP    WIND        PRES    WAVE
                       AIR SEA DIR/SP/G            HT/PER
                 (UTC) (F)     (DEG/KT/KT) (MB)    (FT/S)

$$




USA.gov is the U.S. government's official web portal to all federal, state and local government web resources and services.